This is the latest recevied weather packets stored in our database for station/object KC3BHK-2. If no packets are shown the sender has not sent any weather packets the latest 10 day(s).
| Time | Temp. | Humidity | Pressure | Rain* | Wind** | Luminosity | Snow |
|---|---|---|---|---|---|---|---|
| 1777695553 | 11.11° C | - | - | 0 mm | 1.34 m/s, 307° | - | - |
| 1777695249 | 11.11° C | - | - | 0 mm | 2.68 m/s, 273° | - | - |
| 1777694944 | 11.67° C | - | - | 0 mm | 0.45 m/s, 345° | - | - |
| 1777694639 | 11.67° C | - | - | 0 mm | 0.45 m/s, 339° | - | - |
| 1777694331 | 11.67° C | - | - | 0 mm | 1.34 m/s, 284° | - | - |
| 1777694026 | 11.67° C | - | - | 0 mm | 4.47 m/s, 288° | - | - |
| 1777693721 | 11.67° C | - | - | 0 mm | 1.79 m/s, 277° | - | - |
| 1777693417 | 11.11° C | - | - | 0 mm | 3.13 m/s, 311° | - | - |
| 1777693112 | 11.67° C | - | - | 0 mm | 2.24 m/s, 276° | - | - |
| 1777692807 | 11.67° C | - | - | 0 mm | 1.79 m/s, 322° | - | - |
| 1777692499 | 11.67° C | - | - | 0 mm | 1.79 m/s, 287° | - | - |
| 1777692194 | 11.67° C | - | - | 0 mm | 2.24 m/s, 308° | - | - |
| 1777691889 | 11.67° C | - | - | 0 mm | 1.79 m/s, 359° | - | - |
| 1777691585 | 11.67° C | - | - | 0 mm | 2.24 m/s, 288° | - | - |
| 1777691280 | 11.67° C | - | - | 0 mm | 0.45 m/s, 283° | - | - |
| 1777690975 | 11.67° C | - | - | 0 mm | 2.24 m/s, 221° | - | - |
| 1777690667 | 11.67° C | - | - | 0 mm | 2.24 m/s, 340° | - | - |
| 1777690362 | 11.67° C | - | - | 0 mm | 1.79 m/s, 293° | - | - |
| 1777690057 | 11.67° C | - | - | 0 mm | 1.34 m/s, 266° | - | - |
| 1777689448 | 12.22° C | - | - | 0 mm | 3.58 m/s, 319° | - | - |
| 1777689142 | 11.67° C | - | - | 0 mm | 0.89 m/s, 290° | - | - |
| 1777688834 | 11.11° C | - | - | 0 mm | 0 m/s | - | - |
| 1777688530 | 11.67° C | - | - | 0 mm | 0.45 m/s, 253° | - | - |
| 1777688225 | 11.67° C | - | - | 0 mm | 0.45 m/s, 350° | - | - |
| 1777687920 | 11.67° C | - | - | 0 mm | 0 m/s | - | - |
* Rain latest hour (hover to see other rain measurements)
** Current wind speed in m/s (hover to see current wind gust speed)